| time (UTC) | temp F | wind direction | speed MPH | gust MPH | rain 1hr in | rain 24hr in | rain mn in | humidity % | barometer mb |
| 20260510103500 | 68 | 89 | 0.0 | 0.0 | 0.00 | 0.01 | 0.01 | 98 | 1014.1 |
| 20260510102955 | 68 | 88 | 0.0 | 0.0 | 0.00 | 0.01 | 0.01 | 98 | 1014.1 |
| 20260510102451 | 68 | 91 | 0.0 | 0.0 | 0.00 | 0.01 | 0.01 | 98 | 1014.1 |
| 20260510101948 | 67 | 100 | 0.0 | 0.0 | 0.00 | 0.01 | 0.01 | 98 | 1014.0 |
| 20260510101446 | 67 | 94 | 0.0 | 1.0 | 0.00 | 0.01 | 0.01 | 98 | 1013.6 |
| 20260510100944 | 67 | 98 | 0.0 | 0.0 | 0.00 | 0.01 | 0.01 | 98 | 1013.8 |
| 20260510100440 | 67 | 98 | 0.0 | 0.0 | 0.00 | 0.01 | 0.01 | 98 | 1013.9 |
| 20260510095937 | 67 | 103 | 0.0 | 1.0 | 0.00 | 0.01 | 0.01 | 98 | 1014.0 |
| 20260510095432 | 67 | 86 | 0.0 | 0.0 | 0.00 | 0.01 | 0.01 | 98 | 1013.7 |
| 20260510094931 | 67 | 115 | 0.0 | 0.0 | 0.00 | 0.01 | 0.01 | 98 | 1013.8 |
| 20260510094426 | 67 | 116 | 0.0 | 1.0 | 0.00 | 0.01 | 0.01 | 98 | 1013.8 |
| 20260510093922 | 68 | 87 | 0.0 | 2.0 | 0.00 | 0.01 | 0.01 | 98 | 1013.8 |
| 20260510093418 | 67 | 107 | 1.0 | 1.0 | 0.00 | 0.01 | 0.01 | 98 | 1013.5 |
| 20260510092915 | 67 | 95 | 0.0 | 1.0 | 0.00 | 0.01 | 0.01 | 98 | 1013.7 |
| 20260510092413 | 67 | 77 | 0.0 | 2.0 | 0.00 | 0.01 | 0.01 | 98 | 1013.6 |
| 20260510091912 | 67 | 82 | 0.0 | 0.0 | 0.00 | 0.01 | 0.01 | 98 | 1013.6 |
| 20260510091409 | 67 | 95 | 0.0 | 0.0 | 0.00 | 0.01 | 0.01 | 98 | 1013.6 |
| 20260510090906 | 67 | 95 | 0.0 | 0.0 | 0.00 | 0.01 | 0.01 | 98 | 1013.6 |
| 20260510090403 | 68 | 95 | 0.0 | 0.0 | 0.00 | 0.01 | 0.01 | 98 | 1013.7 |
| 20260510085858 | 68 | 96 | 0.0 | 0.0 | 0.00 | 0.01 | 0.01 | 98 | 1013.7 |
| 20260510085354 | 67 | 105 | 0.0 | 0.0 | 0.00 | 0.01 | 0.01 | 98 | 1013.6 |
| 20260510084849 | 67 | 99 | 0.0 | 0.0 | 0.00 | 0.01 | 0.01 | 98 | 1013.6 |
| 20260510084347 | 67 | 106 | 0.0 | 0.0 | 0.00 | 0.01 | 0.01 | 98 | 1013.6 |
| 20260510083843 | 67 | 106 | 0.0 | 0.0 | 0.00 | 0.01 | 0.01 | 98 | 1013.7 |
| 20260510083340 | 68 | 106 | 0.0 | 0.0 | 0.00 | 0.01 | 0.01 | 98 | 1013.8 |
| 20260510082835 | 68 | 83 | 0.0 | 1.0 | 0.00 | 0.01 | 0.01 | 98 | 1013.4 |
| 20260510082333 | 68 | 78 | 0.0 | 1.0 | 0.00 | 0.01 | 0.01 | 98 | 1013.4 |
| 20260510081831 | 68 | 79 | 1.0 | 2.0 | 0.00 | 0.01 | 0.01 | 98 | 1013.4 |
| 20260510081328 | 68 | 44 | 0.0 | 1.0 | 0.00 | 0.01 | 0.01 | 98 | 1013.5 |
| 20260510080824 | 68 | 106 | 0.0 | 1.0 | 0.00 | 0.01 | 0.01 | 98 | 1013.4 |
| 20260510080319 | 68 | 80 | 0.0 | 0.0 | 0.00 | 0.01 | 0.01 | 98 | 1013.4 |
| 20260510075816 | 68 | 80 | 0.0 | 0.0 | 0.00 | 0.01 | 0.01 | 98 | 1013.4 |
| 20260510075314 | 67 | 80 | 0.0 | 0.0 | 0.00 | 0.01 | 0.01 | 98 | 1013.4 |
| 20260510074810 | 67 | 81 | 0.0 | 0.0 | 0.00 | 0.01 | 0.01 | 98 | 1013.4 |
| 20260510074308 | 67 | 81 | 0.0 | 0.0 | 0.00 | 0.01 | 0.01 | 98 | 1013.4 |
| 20260510073803 | 67 | 81 | 0.0 | 0.0 | 0.00 | 0.01 | 0.01 | 98 | 1013.4 |
| 20260510073259 | 67 | 81 | 0.0 | 0.0 | 0.00 | 0.01 | 0.01 | 98 | 1013.2 |
| 20260510072755 | 68 | 80 | 0.0 | 0.0 | 0.00 | 0.01 | 0.01 | 98 | 1013.1 |
| 20260510072252 | 68 | 84 | 0.0 | 0.0 | 0.00 | 0.01 | 0.01 | 98 | 1013.1 |
| 20260510071748 | 68 | 85 | 0.0 | 0.0 | 0.00 | 0.01 | 0.01 | 98 | 1013.0 |
| 20260510071245 | 67 | 93 | 0.0 | 3.0 | 0.00 | 0.01 | 0.01 | 98 | 1013.1 |
| 20260510070744 | 68 | 81 | 0.0 | 0.0 | 0.00 | 0.01 | 0.01 | 98 | 1013.0 |
| 20260510070241 | 68 | 84 | 0.0 | 0.0 | 0.00 | 0.01 | 0.01 | 98 | 1013.1 |
| 20260510065740 | 68 | 89 | 0.0 | 0.0 | 0.00 | 0.01 | 0.01 | 98 | 1013.1 |
| 20260510065237 | 68 | 99 | 0.0 | 1.0 | 0.00 | 0.01 | 0.01 | 98 | 1013.1 |
| 20260510064734 | 68 | 109 | 0.0 | 2.0 | 0.00 | 0.01 | 0.01 | 98 | 1012.8 |
| 20260510064232 | 68 | 95 | 0.0 | 0.0 | 0.00 | 0.01 | 0.01 | 98 | 1012.9 |
| 20260510063728 | 68 | 95 | 0.0 | 0.0 | 0.00 | 0.01 | 0.01 | 98 | 1012.8 |
| 20260510063224 | 68 | 95 | 0.0 | 0.0 | 0.00 | 0.01 | 0.01 | 98 | 1013.0 |
| 20260510062721 | 68 | 97 | 0.0 | 0.0 | 0.00 | 0.01 | 0.01 | 98 | 1013.0 |
| 20260510062217 | 68 | 75 | 0.0 | 0.0 | 0.00 | 0.01 | 0.01 | 98 | 1013.2 |
| 20260510061712 | 68 | 109 | 0.0 | 0.0 | 0.00 | 0.01 | 0.01 | 97 | 1013.3 |
| 20260510061210 | 68 | 86 | 0.0 | 0.0 | 0.00 | 0.01 | 0.01 | 97 | 1013.5 |
| 20260510060706 | 68 | 88 | 0.0 | 1.0 | 0.00 | 0.01 | 0.01 | 97 | 1013.4 |
| 20260510060203 | 68 | 86 | 0.0 | 0.0 | 0.07 | 0.01 | 0.01 | 97 | 1013.4 |
| 20260510055659 | 68 | 92 | 0.0 | 0.0 | 0.07 | 0.01 | 0.01 | 97 | 1013.5 |
| 20260510055157 | 68 | 88 | 1.0 | 2.0 | 0.00 | 0.00 | 0.00 | 97 | 1013.5 |
| 20260510054652 | 68 | 106 | 2.0 | 3.0 | 0.00 | 0.00 | 0.00 | 97 | 1013.5 |
| 20260510054149 | 68 | 87 | 2.0 | 3.0 | 0.00 | 0.00 | 0.00 | 97 | 1013.4 |
| 20260510053647 | 68 | 74 | 1.0 | 2.0 | 0.00 | 0.00 | 0.00 | 97 | 1013.4 |
| 20260510053145 | 68 | 110 | 0.0 | 1.0 | 0.00 | 0.00 | 0.00 | 97 | 1013.3 |
| 20260510052640 | 68 | 35 | 3.0 | 3.0 | 0.00 | 0.00 | 0.00 | 97 | 1013.5 |
| 20260510052137 | 68 | 79 | 2.0 | 2.0 | 0.00 | 0.00 | 0.00 | 97 | 1013.4 |
| 20260510051632 | 69 | 87 | 0.0 | 2.0 | 0.00 | 0.00 | 0.00 | 97 | 1013.2 |
| 20260510051129 | 69 | 82 | 0.0 | 1.0 | 0.00 | 0.00 | 0.00 | 97 | 1013.1 |
| 20260510050626 | 69 | 116 | 0.0 | 1.0 | 0.00 | 0.00 | 0.00 | 97 | 1013.0 |
| 20260510050123 | 69 | 170 | 2.0 | 3.0 | 0.00 | 0.00 | 0.00 | 97 | 1013.0 |
| 20260510045621 | 69 | 182 | 4.0 | 6.0 | 0.00 | 1.49 | 1.49 | 97 | 1012.9 |
| 20260510045117 | 69 | 153 | 4.0 | 7.0 | 0.00 | 1.49 | 1.49 | 97 | 1012.7 |
| 20260510044613 | 69 | 166 | 6.0 | 8.0 | 0.00 | 1.49 | 1.49 | 97 | 1012.7 |
| 20260510044111 | 69 | 177 | 9.0 | 11.0 | 0.00 | 1.49 | 1.49 | 97 | 1012.5 |
| 20260510043606 | 69 | 161 | 5.0 | 10.0 | 0.00 | 1.49 | 1.49 | 98 | 1012.7 |
| 20260510043102 | 69 | 153 | 7.0 | 9.0 | 0.00 | 1.49 | 1.49 | 98 | 1012.5 |
| 20260510042601 | 69 | 159 | 6.0 | 8.0 | 0.00 | 1.49 | 1.49 | 98 | 1012.6 |
| 20260510042056 | 69 | 193 | 6.0 | 9.0 | 0.00 | 1.49 | 1.49 | 98 | 1013.0 |
| 20260510041554 | 69 | 176 | 8.0 | 10.0 | 0.00 | 1.49 | 1.49 | 98 | 1012.9 |
| 20260510041051 | 69 | 171 | 6.0 | 11.0 | 0.00 | 1.49 | 1.49 | 98 | 1012.9 |
| 20260510040548 | 69 | 186 | 10.0 | 11.0 | 0.00 | 1.49 | 1.49 | 98 | 1013.0 |
| 20260510040043 | 69 | 181 | 8.0 | 13.0 | 0.00 | 1.49 | 1.49 | 98 | 1013.2 |
| 20260510035540 | 69 | 175 | 9.0 | 11.0 | 0.00 | 1.49 | 1.49 | 98 | 1013.2 |
| 20260510035039 | 69 | 188 | 9.0 | 13.0 | 0.00 | 1.49 | 1.49 | 98 | 1013.1 |
| 20260510034538 | 69 | 170 | 11.0 | 15.0 | 0.00 | 1.49 | 1.49 | 98 | 1013.2 |
| 20260510034035 | 69 | 188 | 9.0 | 11.0 | 0.00 | 1.49 | 1.49 | 98 | 1013.0 |
| 20260510033530 | 69 | 170 | 6.0 | 9.0 | 0.00 | 1.49 | 1.49 | 98 | 1013.3 |
| 20260510033029 | 69 | 159 | 4.0 | 7.0 | 0.00 | 1.49 | 1.49 | 98 | 1013.2 |
| 20260510032525 | 68 | 177 | 4.0 | 6.0 | 0.00 | 1.49 | 1.49 | 98 | 1013.6 |
| 20260510032020 | 68 | 174 | 3.0 | 4.0 | 0.00 | 1.49 | 1.49 | 98 | 1013.8 |
| 20260510031516 | 68 | 195 | 1.0 | 2.0 | 0.00 | 1.49 | 1.49 | 98 | 1013.9 |
| 20260510031012 | 68 | 173 | 2.0 | 2.0 | 0.00 | 1.49 | 1.49 | 98 | 1014.2 |
| 20260510030507 | 69 | 183 | 0.0 | 1.0 | 0.00 | 1.49 | 1.49 | 98 | 1014.2 |
| 20260510030005 | 69 | 185 | 1.0 | 2.0 | 0.00 | 1.49 | 1.49 | 98 | 1014.3 |
| 20260510025502 | 68 | 173 | 3.0 | 3.0 | 0.00 | 1.49 | 1.49 | 98 | 1014.1 |
| 20260510024959 | 69 | 167 | 0.0 | 0.0 | 0.00 | 1.49 | 1.49 | 98 | 1014.3 |
| 20260510024456 | 69 | 166 | 0.0 | 0.0 | 0.00 | 1.49 | 1.49 | 98 | 1014.3 |
| 20260510023952 | 69 | 166 | 0.0 | 0.0 | 0.00 | 1.49 | 1.49 | 98 | 1014.2 |
| 20260510023448 | 69 | 166 | 0.0 | 0.0 | 0.00 | 1.49 | 1.49 | 98 | 1014.1 |
| 20260510022945 | 69 | 179 | 0.0 | 0.0 | 0.00 | 1.49 | 1.49 | 98 | 1014.1 |
| 20260510022444 | 69 | 174 | 2.0 | 3.0 | 0.00 | 1.49 | 1.49 | 98 | 1013.8 |
| 20260510021943 | 69 | 166 | 0.0 | 0.0 | 0.00 | 1.49 | 1.49 | 98 | 1013.9 |
| 20260510021442 | 69 | 153 | 0.0 | 0.0 | 0.00 | 1.49 | 1.49 | 98 | 1013.9 |
| 20260510020939 | 69 | 155 | 0.0 | 0.0 | 0.00 | 1.49 | 1.49 | 98 | 1014.0 |
| 20260510020438 | 69 | 157 | 0.0 | 0.0 | 0.00 | 1.49 | 1.49 | 98 | 1013.9 |
| 20260510015934 | 68 | 181 | 0.0 | 0.0 | 0.00 | 1.49 | 1.49 | 98 | 1013.9 |
| 20260510015430 | 69 | 182 | 0.0 | 0.0 | 0.00 | 1.49 | 1.49 | 98 | 1013.5 |
| 20260510014925 | 69 | 178 | 0.0 | 0.0 | 0.00 | 1.49 | 1.49 | 98 | 1013.6 |
| 20260510014423 | 69 | 168 | 1.0 | 2.0 | 0.00 | 1.49 | 1.49 | 98 | 1013.5 |
| 20260510013920 | 69 | 163 | 1.0 | 2.0 | 0.00 | 1.49 | 1.49 | 98 | 1013.4 |
| 20260510013414 | 69 | 157 | 1.0 | 2.0 | 0.00 | 1.49 | 1.49 | 98 | 1013.3 |
| 20260510012910 | 69 | 175 | 2.0 | 2.0 | 0.00 | 1.49 | 1.49 | 98 | 1013.5 |
| 20260510012406 | 68 | 167 | 3.0 | 3.0 | 0.00 | 1.49 | 1.49 | 98 | 1013.4 |
| 20260510011900 | 68 | 182 | 1.0 | 3.0 | 0.00 | 1.49 | 1.49 | 98 | 1013.3 |
| 20260510011355 | 68 | 162 | 1.0 | 2.0 | 0.00 | 1.49 | 1.49 | 98 | 1013.1 |
| 20260510010852 | 68 | 148 | 2.0 | 3.0 | 0.00 | 1.49 | 1.49 | 98 | 1013.1 |
| 20260510010349 | 68 | 153 | 1.0 | 3.0 | 0.00 | 1.49 | 1.49 | 98 | 1013.3 |
| 20260510005846 | 68 | 171 | 2.0 | 3.0 | 0.00 | 1.49 | 1.49 | 98 | 1012.9 |
| 20260510005342 | 68 | 150 | 2.0 | 3.0 | 0.00 | 1.49 | 1.49 | 98 | 1012.9 |
| 20260510004840 | 68 | 170 | 2.0 | 3.0 | 0.00 | 1.49 | 1.49 | 98 | 1012.9 |
| 20260510004337 | 69 | 177 | 2.0 | 4.0 | 0.00 | 1.49 | 1.49 | 98 | 1012.9 |
| 20260510003835 | 69 | 164 | 3.0 | 6.0 | 0.00 | 1.49 | 1.49 | 98 | 1012.7 |
| 20260510003332 | 69 | 125 | 4.0 | 6.0 | 0.00 | 1.49 | 1.49 | 98 | 1013.0 |
| 20260510002830 | 69 | 158 | 5.0 | 7.0 | 0.00 | 1.49 | 1.49 | 98 | 1012.7 |
| 20260510002328 | 69 | 160 | 5.0 | 6.0 | 0.00 | 1.49 | 1.49 | 98 | 1012.8 |
| 20260510001824 | 69 | 176 | 6.0 | 7.0 | 0.00 | 1.49 | 1.49 | 98 | 1012.7 |
| 20260510001322 | 69 | 191 | 4.0 | 7.0 | 0.00 | 1.49 | 1.49 | 98 | 1012.6 |
| 20260510000818 | 69 | 169 | 6.0 | 7.0 | 0.00 | 1.49 | 1.49 | 98 | 1012.5 |
| 20260510000318 | 69 | 167 | 4.0 | 7.0 | 0.00 | 1.49 | 1.49 | 98 | 1012.6 |
| 20260509235813 | 69 | 169 | 4.0 | 7.0 | 0.00 | 1.49 | 1.49 | 98 | 1012.6 |
| 20260509235309 | 69 | 147 | 3.0 | 6.0 | 0.00 | 1.49 | 1.49 | 98 | 1012.8 |
| 20260509234805 | 69 | 176 | 6.0 | 7.0 | 0.00 | 1.49 | 1.49 | 98 | 1012.7 |
| 20260509234302 | 69 | 156 | 2.0 | 6.0 | 0.00 | 1.49 | 1.49 | 98 | 1012.7 |
| 20260509233800 | 68 | 173 | 3.0 | 3.0 | 0.00 | 1.49 | 1.49 | 98 | 1012.4 |
| 20260509233257 | 68 | 149 | 3.0 | 4.0 | 0.00 | 1.49 | 1.49 | 98 | 1012.7 |
| 20260509232753 | 69 | 158 | 2.0 | 3.0 | 0.00 | 1.49 | 1.49 | 98 | 1012.5 |
| 20260509232251 | 68 | 164 | 2.0 | 3.0 | 0.00 | 1.49 | 1.49 | 98 | 1012.6 |
| 20260509231747 | 69 | 177 | 2.0 | 2.0 | 0.00 | 1.49 | 1.49 | 98 | 1012.5 |
| 20260509231244 | 69 | 146 | 1.0 | 1.0 | 0.00 | 1.49 | 1.49 | 98 | 1012.6 |
| 20260509230741 | 68 | 94 | 0.0 | 0.0 | 0.00 | 1.49 | 1.49 | 98 | 1012.9 |
| 20260509230238 | 69 | 75 | 0.0 | 0.0 | 0.00 | 1.49 | 1.49 | 98 | 1013.1 |
| 20260509225733 | 69 | 118 | 0.0 | 0.0 | 0.00 | 1.49 | 1.49 | 98 | 1013.2 |
| 20260509225229 | 68 | 83 | 0.0 | 0.0 | 0.00 | 1.49 | 1.49 | 98 | 1013.0 |
| 20260509224725 | 68 | 155 | 0.0 | 2.0 | 0.00 | 1.49 | 1.49 | 98 | 1013.2 |
| 20260509224223 | 69 | 164 | 3.0 | 3.0 | 0.00 | 1.49 | 1.49 | 98 | 1013.0 |
| 20260509223719 | 69 | 170 | 2.0 | 3.0 | 0.00 | 1.49 | 1.49 | 98 | 1012.9 |
| 20260509223217 | 68 | 144 | 2.0 | 4.0 | 0.00 | 1.49 | 1.49 | 98 | 1012.7 |
| 20260509222713 | 68 | 149 | 2.0 | 3.0 | 0.00 | 1.49 | 1.49 | 98 | 1012.9 |
| 20260509222209 | 68 | 162 | 0.0 | 0.0 | 0.00 | 1.49 | 1.49 | 98 | 1012.8 |
| 20260509221704 | 68 | 160 | 1.0 | 2.0 | 0.00 | 1.49 | 1.49 | 98 | 1012.6 |
| 20260509221200 | 68 | 177 | 2.0 | 2.0 | 0.00 | 1.49 | 1.49 | 98 | 1012.0 |
| 20260509220657 | 68 | 160 | 0.0 | 1.0 | 0.00 | 1.49 | 1.49 | 98 | 1012.0 |
| 20260509220154 | 68 | 164 | 0.0 | 1.0 | 0.00 | 1.49 | 1.49 | 98 | 1011.9 |
| 20260509215649 | 68 | 164 | 2.0 | 4.0 | 0.05 | 1.49 | 1.49 | 98 | 1012.2 |
| 20260509215146 | 68 | 184 | 5.0 | 6.0 | 0.05 | 1.49 | 1.49 | 98 | 1012.5 |
| 20260509214643 | 68 | 178 | 3.0 | 3.0 | 0.00 | 1.48 | 1.48 | 98 | 1012.5 |
| 20260509214140 | 68 | 130 | 0.0 | 0.0 | 0.07 | 1.48 | 1.48 | 98 | 1012.7 |
| 20260509213637 | 68 | 85 | 0.0 | 0.0 | 0.19 | 1.48 | 1.48 | 98 | 1012.6 |
| 20260509213132 | 68 | 108 | 0.0 | 0.0 | 0.19 | 1.46 | 1.46 | 98 | 1012.9 |
| 20260509212631 | 68 | 107 | 0.0 | 0.0 | 0.19 | 1.45 | 1.45 | 98 | 1013.2 |
| 20260509212127 | 68 | 109 | 0.0 | 0.0 | 0.07 | 1.43 | 1.43 | 97 | 1013.2 |
| 20260509211623 | 68 | 170 | 0.0 | 0.0 | 0.05 | 1.42 | 1.42 | 97 | 1013.1 |
| 20260509211120 | 68 | 171 | 0.0 | 0.0 | 0.00 | 1.41 | 1.41 | 97 | 1012.8 |
| 20260509210617 | 68 | 172 | 1.0 | 1.0 | 0.00 | 1.41 | 1.41 | 97 | 1012.6 |
| 20260509210114 | 68 | 182 | 3.0 | 4.0 | 0.00 | 1.41 | 1.41 | 97 | 1012.3 |
| 20260509205614 | 68 | 153 | 2.0 | 3.0 | 0.00 | 1.41 | 1.41 | 97 | 1012.2 |
| 20260509205109 | 68 | 162 | 2.0 | 2.0 | 0.00 | 1.41 | 1.41 | 97 | 1012.2 |
| 20260509204605 | 68 | 153 | 5.0 | 6.0 | 0.00 | 1.41 | 1.41 | 97 | 1011.8 |
| 20260509204102 | 68 | 169 | 2.0 | 4.0 | 0.00 | 1.41 | 1.41 | 98 | 1011.8 |
| 20260509203558 | 68 | 170 | 2.0 | 6.0 | 0.00 | 1.41 | 1.41 | 98 | 1012.0 |
| 20260509203057 | 67 | 129 | 2.0 | 6.0 | 0.00 | 1.41 | 1.41 | 98 | 1012.1 |
| 20260509202556 | 68 | 167 | 6.0 | 7.0 | 0.07 | 1.41 | 1.41 | 98 | 1012.2 |
| 20260509202052 | 68 | 124 | 3.0 | 7.0 | 0.07 | 1.41 | 1.41 | 98 | 1012.3 |
| 20260509201547 | 67 | 140 | 4.0 | 8.0 | 0.00 | 1.40 | 1.40 | 98 | 1012.2 |
| 20260509201046 | 68 | 177 | 5.0 | 7.0 | 0.00 | 1.40 | 1.40 | 98 | 1012.3 |
| 20260509200544 | 67 | 158 | 4.0 | 6.0 | 0.00 | 1.40 | 1.40 | 98 | 1012.6 |
| 20260509200042 | 67 | 166 | 4.0 | 6.0 | 0.00 | 1.40 | 1.40 | 98 | 1012.7 |
| 20260509195537 | 68 | 138 | 2.0 | 3.0 | 0.00 | 1.40 | 1.40 | 98 | 1012.8 |
| 20260509195037 | 67 | 103 | 0.0 | 1.0 | 0.00 | 1.40 | 1.40 | 98 | 1013.1 |
| 20260509194532 | 67 | 184 | 2.0 | 3.0 | 0.00 | 1.40 | 1.40 | 98 | 1013.5 |
| 20260509194030 | 67 | 141 | 0.0 | 1.0 | 0.00 | 1.40 | 1.40 | 98 | 1013.3 |
| 20260509193530 | 67 | 177 | 0.0 | 1.0 | 0.00 | 1.40 | 1.40 | 98 | 1013.5 |
| 20260509193027 | 66 | 187 | 3.0 | 3.0 | 0.00 | 1.40 | 1.40 | 98 | 1013.8 |
| 20260509192524 | 66 | 159 | 1.0 | 2.0 | 0.05 | 1.40 | 1.40 | 98 | 1013.7 |
| 20260509192019 | 66 | 168 | 1.0 | 2.0 | 0.05 | 1.40 | 1.40 | 98 | 1013.8 |
| 20260509191513 | 66 | 186 | 2.0 | 3.0 | 0.07 | 1.39 | 1.39 | 98 | 1013.7 |
| 20260509191009 | 66 | 190 | 4.0 | 4.0 | 0.19 | 1.39 | 1.39 | 98 | 1013.5 |
| 20260509190507 | 66 | 145 | 2.0 | 3.0 | 0.17 | 1.38 | 1.38 | 98 | 1013.4 |
| 20260509190005 | 66 | 180 | 2.0 | 3.0 | 0.12 | 1.36 | 1.36 | 98 | 1013.6 |
| 20260509185501 | 66 | 164 | 4.0 | 4.0 | 0.38 | 1.35 | 1.35 | 98 | 1013.5 |
| 20260509184958 | 66 | 144 | 3.0 | 3.0 | 0.38 | 1.33 | 1.33 | 98 | 1013.8 |
| 20260509184457 | 66 | 175 | 1.0 | 4.0 | 0.24 | 1.29 | 1.29 | 98 | 1014.4 |
| 20260509183953 | 66 | 191 | 4.0 | 7.0 | 0.17 | 1.27 | 1.27 | 98 | 1014.4 |
| 20260509183452 | 66 | 180 | 5.0 | 7.0 | 0.17 | 1.25 | 1.25 | 98 | 1014.3 |
| 20260509182949 | 66 | 181 | 6.0 | 8.0 | 0.12 | 1.23 | 1.23 | 98 | 1013.9 |
| 20260509182445 | 66 | 207 | 3.0 | 6.0 | 0.12 | 1.22 | 1.22 | 98 | 1013.6 |
| 20260509181943 | 66 | 196 | 4.0 | 4.0 | 0.05 | 1.21 | 1.21 | 98 | 1013.6 |
| 20260509181441 | 66 | 186 | 3.0 | 4.0 | 0.14 | 1.20 | 1.20 | 98 | 1013.3 |
| 20260509180938 | 66 | 142 | 3.0 | 8.0 | 0.19 | 1.19 | 1.19 | 98 | 1013.1 |
| 20260509180434 | 66 | 184 | 5.0 | 8.0 | 0.24 | 1.18 | 1.18 | 98 | 1013.9 |
| 20260509175931 | 66 | 191 | 5.0 | 6.0 | 0.12 | 1.16 | 1.16 | 98 | 1013.7 |
| 20260509175427 | 66 | 188 | 5.0 | 7.0 | 0.12 | 1.15 | 1.15 | 98 | 1014.1 |
| 20260509174923 | 67 | 164 | 6.0 | 7.0 | 0.00 | 1.13 | 1.13 | 98 | 1013.9 |
| 20260509174419 | 67 | 161 | 3.0 | 4.0 | 0.07 | 1.13 | 1.13 | 98 | 1013.6 |
| 20260509173916 | 67 | 157 | 4.0 | 4.0 | 0.12 | 1.13 | 1.13 | 98 | 1013.5 |
| 20260509173415 | 67 | 127 | 0.0 | 1.0 | 0.05 | 1.12 | 1.12 | 98 | 1013.8 |
| 20260509172912 | 67 | 207 | 1.0 | 3.0 | 0.00 | 1.11 | 1.11 | 98 | 1014.0 |
| 20260509172409 | 67 | 189 | 1.0 | 3.0 | 0.00 | 1.11 | 1.11 | 98 | 1013.7 |
| 20260509171904 | 67 | 178 | 6.0 | 9.0 | 0.07 | 1.11 | 1.11 | 98 | 1013.0 |
| 20260509171401 | 67 | 158 | 3.0 | 8.0 | 0.07 | 1.11 | 1.11 | 98 | 1013.7 |
| 20260509170857 | 67 | 156 | 3.0 | 8.0 | 0.00 | 1.10 | 1.10 | 98 | 1013.7 |
| 20260509170353 | 67 | 141 | 0.0 | 9.0 | 0.00 | 1.10 | 1.10 | 98 | 1013.6 |
| 20260509165848 | 67 | 155 | 5.0 | 9.0 | 0.05 | 1.10 | 1.10 | 98 | 1013.7 |
| 20260509165342 | 67 | 153 | 4.0 | 8.0 | 0.00 | 1.09 | 1.09 | 98 | 1013.9 |
| 20260509164839 | 67 | 127 | 5.0 | 8.0 | 0.07 | 1.09 | 1.09 | 98 | 1013.9 |
| 20260509164335 | 67 | 161 | 9.0 | 11.0 | 0.07 | 1.09 | 1.09 | 98 | 1014.2 |
| 20260509163831 | 67 | 187 | 2.0 | 7.0 | 0.05 | 1.08 | 1.08 | 98 | 1014.0 |
| 20260509163328 | 67 | 69 | 2.0 | 7.0 | 0.35 | 1.08 | 1.08 | 98 | 1013.9 |
| 20260509162828 | 68 | 170 | 6.0 | 8.0 | 0.50 | 1.07 | 1.07 | 98 | 1014.0 |
| 20260509162326 | 68 | 182 | 2.0 | 7.0 | 0.35 | 1.02 | 1.02 | 98 | 1014.0 |
| 20260509161823 | 68 | 66 | 2.0 | 6.0 | 0.28 | 0.99 | 0.99 | 98 | 1013.9 |
| 20260509161319 | 68 | 93 | 1.0 | 6.0 | 0.12 | 0.95 | 0.95 | 98 | 1013.9 |
| 20260509160814 | 68 | 64 | 2.0 | 3.0 | 0.14 | 0.94 | 0.94 | 98 | 1014.1 |
| 20260509160311 | 68 | 52 | 0.0 | 3.0 | 0.05 | 0.92 | 0.92 | 98 | 1014.4 |
| 20260509155806 | 68 | 75 | 1.0 | 3.0 | 0.28 | 0.92 | 0.92 | 98 | 1014.2 |
| 20260509155306 | 68 | 82 | 2.0 | 2.0 | 0.47 | 0.91 | 0.91 | 98 | 1014.4 |
| 20260509154759 | 68 | 71 | 3.0 | 6.0 | 0.12 | 0.85 | 0.85 | 98 | 1014.4 |
| 20260509154256 | 68 | 77 | 1.0 | 3.0 | 0.00 | 0.83 | 0.83 | 98 | 1014.3 |
| 20260509153753 | 68 | 57 | 2.0 | 6.0 | 0.07 | 0.83 | 0.83 | 98 | 1014.1 |
| 20260509153248 | 67 | 63 | 2.0 | 8.0 | 0.07 | 0.83 | 0.83 | 98 | 1014.0 |
| 20260509152745 | 68 | 65 | 2.0 | 4.0 | 0.24 | 0.82 | 0.82 | 98 | 1014.0 |
| 20260509152242 | 68 | 58 | 3.0 | 4.0 | 0.42 | 0.82 | 0.82 | 98 | 1014.0 |
| 20260509151739 | 67 | 65 | 3.0 | 6.0 | 0.24 | 0.77 | 0.77 | 98 | 1013.9 |
| 20260509151236 | 67 | 34 | 2.0 | 6.0 | 0.17 | 0.75 | 0.75 | 98 | 1013.9 |
| 20260509150734 | 67 | 62 | 4.0 | 7.0 | 0.12 | 0.73 | 0.73 | 98 | 1013.5 |
| 20260509150232 | 67 | 101 | 2.0 | 4.0 | 0.31 | 0.72 | 0.72 | 98 | 1013.7 |
| 20260509145729 | 67 | 70 | 1.0 | 4.0 | 0.31 | 0.69 | 0.69 | 98 | 1014.1 |
| 20260509145228 | 67 | 78 | 1.0 | 6.0 | 0.31 | 0.67 | 0.67 | 98 | 1014.0 |
| 20260509144725 | 67 | 36 | 4.0 | 9.0 | 0.24 | 0.64 | 0.64 | 98 | 1013.8 |
| 20260509144222 | 67 | 69 | 1.0 | 4.0 | 0.24 | 0.62 | 0.62 | 98 | 1013.7 |
| 20260509143719 | 66 | 62 | 2.0 | 3.0 | 0.42 | 0.60 | 0.60 | 98 | 1014.0 |
| 20260509143217 | 66 | 92 | 0.0 | 1.0 | 0.35 | 0.58 | 0.58 | 97 | 1014.2 |
| 20260509142712 | 66 | 70 | 1.0 | 2.0 | 0.12 | 0.53 | 0.53 | 97 | 1013.8 |
| 20260509142209 | 66 | 72 | 0.0 | 1.0 | 0.12 | 0.52 | 0.52 | 97 | 1013.8 |
| 20260509141704 | 66 | 50 | 1.0 | 6.0 | 0.12 | 0.51 | 0.51 | 97 | 1013.9 |
| 20260509141202 | 66 | 63 | 2.0 | 2.0 | 0.07 | 0.50 | 0.50 | 97 | 1013.8 |
| 20260509140658 | 66 | 67 | 2.0 | 4.0 | 0.00 | 0.49 | 0.49 | 97 | 1013.4 |
| 20260509140156 | 66 | 108 | 2.0 | 3.0 | 0.05 | 0.49 | 0.49 | 97 | 1013.5 |
| 20260509135653 | 66 | 45 | 2.0 | 4.0 | 0.24 | 0.49 | 0.49 | 97 | 1013.3 |
| 20260509135151 | 66 | 73 | 3.0 | 4.0 | 0.50 | 0.48 | 0.48 | 97 | 1013.4 |
| 20260509134647 | 66 | 54 | 1.0 | 2.0 | 0.61 | 0.46 | 0.46 | 97 | 1013.3 |
| 20260509134145 | 65 | 68 | 1.0 | 1.0 | 0.40 | 0.40 | 0.40 | 97 | 1013.6 |
| 20260509133642 | 65 | 50 | 0.0 | 2.0 | 0.19 | 0.35 | 0.35 | 97 | 1014.1 |
| 20260509133139 | 65 | 53 | 1.0 | 1.0 | 0.19 | 0.33 | 0.33 | 97 | 1013.8 |
| 20260509132637 | 65 | 86 | 0.0 | 2.0 | 0.35 | 0.32 | 0.32 | 97 | 1013.8 |
| 20260509132136 | 65 | 71 | 0.0 | 4.0 | 0.66 | 0.30 | 0.30 | 97 | 1014.3 |
| 20260509131631 | 66 | 13 | 2.0 | 6.0 | 0.66 | 0.25 | 0.25 | 96 | 1014.3 |
| 20260509131129 | 66 | 352 | 2.0 | 4.0 | 0.59 | 0.19 | 0.19 | 96 | 1014.4 |
| 20260509130624 | 66 | 71 | 4.0 | 9.0 | 0.54 | 0.13 | 0.13 | 96 | 1014.5 |
| 20260509130121 | 66 | 36 | 3.0 | 21.0 | 0.38 | 0.07 | 0.07 | 95 | 1014.4 |
| 20260509125617 | 67 | 33 | 5.0 | 15.0 | 0.12 | 0.03 | 0.03 | 94 | 1014.5 |
| 20260509125114 | 68 | 28 | 7.0 | 24.0 | 0.00 | 0.01 | 0.01 | 92 | 1014.3 |
| 20260509124611 | 73 | 80 | 13.0 | 21.0 | 0.00 | 0.01 | 0.01 | 89 | 1013.9 |
| 20260509124108 | 74 | 340 | 7.0 | 9.0 | 0.00 | 0.01 | 0.01 | 95 | 1013.0 |
| 20260509123606 | 74 | 155 | 0.0 | 3.0 | 0.00 | 0.01 | 0.01 | 95 | 1012.0 |
| 20260509123102 | 73 | 209 | 3.0 | 4.0 | 0.00 | 0.01 | 0.01 | 95 | 1011.7 |
| 20260509122558 | 73 | 185 | 6.0 | 8.0 | 0.00 | 0.01 | 0.01 | 95 | 1011.8 |
| 20260509122055 | 73 | 181 | 6.0 | 7.0 | 0.00 | 0.01 | 0.01 | 95 | 1011.7 |
| 20260509121551 | 73 | 175 | 3.0 | 7.0 | 0.00 | 0.01 | 0.01 | 95 | 1011.5 |
| 20260509121050 | 73 | 164 | 4.0 | 7.0 | 0.00 | 0.01 | 0.01 | 96 | 1011.3 |
| 20260509120548 | 73 | 180 | 4.0 | 7.0 | 0.00 | 0.01 | 0.01 | 96 | 1011.4 |
| 20260509120046 | 72 | 191 | 4.0 | 6.0 | 0.00 | 0.01 | 0.01 | 96 | 1011.4 |
| 20260509115542 | 72 | 170 | 5.0 | 7.0 | 0.00 | 0.01 | 0.01 | 96 | 1011.4 |
| 20260509115040 | 72 | 176 | 5.0 | 7.0 | 0.00 | 0.01 | 0.01 | 96 | 1011.2 |
| 20260509114538 | 72 | 171 | 4.0 | 6.0 | 0.00 | 0.01 | 0.01 | 96 | 1011.4 |
| 20260509114037 | 72 | 135 | 2.0 | 2.0 | 0.00 | 0.01 | 0.01 | 96 | 1011.3 |
| 20260509113535 | 72 | 177 | 2.0 | 4.0 | 0.00 | 0.01 | 0.01 | 96 | 1011.0 |
| 20260509113032 | 72 | 193 | 4.0 | 7.0 | 0.00 | 0.01 | 0.01 | 96 | 1011.1 |
| 20260509112528 | 71 | 176 | 4.0 | 7.0 | 0.00 | 0.01 | 0.01 | 96 | 1011.1 |
| 20260509112025 | 71 | 191 | 4.0 | 6.0 | 0.00 | 0.01 | 0.01 | 96 | 1011.2 |
| 20260509111523 | 71 | 174 | 3.0 | 3.0 | 0.00 | 0.01 | 0.01 | 96 | 1010.8 |
| 20260509111020 | 71 | 165 | 2.0 | 3.0 | 0.00 | 0.01 | 0.01 | 96 | 1010.8 |
| 20260509110516 | 71 | 183 | 2.0 | 3.0 | 0.00 | 0.01 | 0.01 | 96 | 1010.7 |
| 20260509110013 | 71 | 149 | 4.0 | 4.0 | 0.00 | 0.01 | 0.01 | 96 | 1010.9 |
| 20260509105512 | 71 | 168 | 2.0 | 3.0 | 0.00 | 0.01 | 0.01 | 96 | 1010.9 |
| 20260509105009 | 71 | 163 | 0.0 | 0.0 | 0.00 | 0.01 | 0.01 | 96 | 1010.9 |
| 20260509104505 | 71 | 163 | 0.0 | 1.0 | 0.00 | 0.01 | 0.01 | 96 | 1010.8 |
| 20260509104003 | 71 | 182 | 0.0 | 1.0 | 0.00 | 0.01 | 0.01 | 96 | 1010.8 |